COSMOS 2371

导读 | 豆包AI

COSMOS 2371是独联体(CIS)于2000年7月4日发射的卫星,隶属于苏联/俄罗斯传承的“宇宙”(COSMOS)卫星系列,该系列涵盖军用侦察、通信及导航等多种空间任务。作为俄航天体系早期组网任务的组成部分,延续了CIS在冷战后维持空间应用能力的发展脉络,服务于区域监测与航天技术验证需求,在全球卫星网络发展中留下了独联体航天的印记。

Basic Information
目录编号:
26394
目录名称:
COSMOS 2371
国际标识:
2000-036A
轨道中心:
EARTH
卫星名称:
COSMOS 2371
卫星全名:
--
卫星状态:
在轨 (已飞行9432 天)
发射日期:
2000-07-04 UTC
国别 :
俄罗斯(独联体) (CIS)
星等 :
--
Orbit Information
数据来源 国际轨道数据 AOE轨道数据
星历时间 2026-05-01T01:09:18+0800
20小时前
查看轨道信息
2026-05-01T06:00:00+0800
15小时前
查看轨道信息
半长轴 42165.822km 42165.962km
偏心率 0.0001515 0.0001469
轨道倾角 13.967° 13.967°
近地点辐角 183.178° 179.374°
升交点赤经 7.867° 7.864°
平近点角 355.541° 72.216°
近地点 35781.296km 35781.63km
远地点 35794.074km 35794.02km
周期 1436.153分钟 1436.160分钟
每日圈数 1.002679 1.002674
Detailed Information
使用方式:
暂无
2D Orbit Map
3D Orbit Map
Orbit Altitude Analysis Chart
Orbit Inclination Analysis Chart
Orbit Comprehensive Analysis Chart
View Comprehensive Chart